CAPE
0 0 0 0 0 0 0 0 0 0 0 0 0 0 0 0 0 0 0 0 0 0 0 0 0 0 0 48 16 115 75 1 3 10 1 0 0 0 0 0 0 0 0 550 574
0 0 0 0 0 0 0 0 0 0 0 0 0 0 0 0 0 0 0 0 0 0 0 0 0 0 0 26 32 44 15 58 17 24 3 0 79 35 4 8 0 44 201 315 447
0 0 0 0 0 0 0 0 0 0 0 0 0 0 0 0 0 0 0 0 0 0 0 0 0 0 2 19 16 109 110 23 8 12 1 59 29 56 16 198 111 300 482 344 362
0 0 0 0 0 0 0 0 0 0 0 0 0 0 0 0 0 0 0 0 0 0 0 0 0 0 1 31 110 190 58 117 51 43 13 22 49 35 14 245 266 210 848 454 368
0 0 0 0 0 0 0 0 0 0 0 0 0 0 0 0 0 0 0 0 0 0 0 0 0 2 0 6 13 49 38 27 13 0 29 29 0 30 118 161 580 173 982 724 510
0 0 0 0 0 0 0 0 0 0 0 0 0 0 0 0 0 0 0 0 0 0 0 0 0 0 6 6 51 19 97 82 50 26 28 0 18 78 101 242 699 424 449 964 768
0 0 0 0 0 0 0 0 0 0 0 0 0 0 0 0 0 0 0 0 0 0 0 0 0 0 2 1 15 41 7 19 29 2 70 148 55 50 56 82 468 688 520 710 924
0 0 0 0 0 0 0 0 0 0 0 0 0 0 0 0 0 0 0 0 0 0 0 0 0 0 0 35 0 4 7 63 6 0 67 215 53 13 0 40 649 630 730 729 880
0 0 0 0 0 0 0 0 0 0 0 0 0 0 0 0 0 0 0 0 0 0 0 0 0 0 8 43 5 6 6 0 46 22 60 176 90 277 239 290 462 582 527 709 770
0 0 0 0 0 0 0 0 0 0 0 0 0 0 0 0 0 0 0 0 0 0 0 0 0 0 8 25 1 0 1 25 81 104 15 6 2 24 106 895 735 603 345 563 713
0 0 0 0 0 0 0 0 0 0 0 0 0 0 0 0 0 0 0 0 0 0 0 0 0 10 0 6 0 2 0 0 9 2 26 1 12 0 103 219 733 39 76 429 573
0 0 0 0 0 0 0 0 0 0 0 0 0 0 0 0 0 0 0 0 0 9 16 6 6 32 0 0 1 8 1 0 4 0 0 0 28 38 54 17 13 0 0 641 459
0 0 0 0 0 0 0 0 0 0 0 0 0 0 0 0 0 0 0 0 0 22 25 17 14 19 1 0 3 7 5 9 2 0 3 14 49 89 4 0 0 0 4 10 690
0 0 0 0 0 0 0 0 0 0 0 0 0 0 0 0 0 0 0 0 0 1 6 1 19 3 19 0 0 2 21 0 2 7 9 48 8 112 10 4 28 0 0 85 613
0 0 0 0 0 0 0 0 0 0 0 0 0 0 0 0 0 0 0 1 0 0 0 1 2 31 3 4 0 0 14 1 9 45 37 27 33 56 43 6 33 106 123 53 441
0 0 0 0 0 0 0 0 0 0 0 15 0 0 0 0 0 0 0 0 0 0 2 3 3 10 33 13 15 0 0 4 28 29 14 22 4 92 0 0 16 0 1 81 184
0 0 0 0 0 0 0 0 0 0 1 15 12 1 0 0 0 0 0 0 0 0 0 1 0 5 12 4 1 4 14 5 5 34 0 17 39 34 0 0 0 0 0 66 63
0 0 0 0 0 0 0 0 0 5 2 35 10 3 17 38 5 0 0 0 0 0 1 0 0 14 2 0 5 1 9 13 26 20 0 1 37 13 9 1 0 42 26 76 170
0 0 0 0 0 0 0 0 0 7 0 5 9 36 38 0 3 10 32 0 37 5 0 5 0 20 0 0 0 3 6 8 20 46 51 14 4 3 0 6 12 4 43 243 3
0 0 0 0 0 0 0 0 0 0 0 0 0 3 19 4 0 4 4 0 4 1 0 64 37 149 1 0 3 8 3 33 25 0 25 38 15 3 3 38 52 11 46 132 294
0 1 0 0 0 0 0 0 3 0 0 0 0 0 3 1 37 57 29 21 58 187 247 129 42 81 24 20 37 21 5 12 27 0 16 28 79 26 8 10 17 0 10 59 27
2 0 0 0 0 0 0 0 0 0 0 0 0 0 0 0 0 1 6 126 332 255 65 95 82 107 64 18 1 0 0 0 26 59 88 100 5 30 0 0 0 0 0 0 0
41 10 0 0 0 0 0 0 0 0 0 0 0 0 0 0 1 1 21 213 246 99 428 556 149 0 81 6 0 0 0 0 7 207 187 88 75 2 0 0 0 0 0 0 0
148 1 0 0 0 0 0 0 0 0 0 0 0 0 0 0 6 14 104 118 0 58 0 213 213 104 0 5 24 1 90 63 117 51 107 16 34 0 0 0 0 0 0 0 0
629 680 167 0 0 0 0 0 0 0 6 4 0 0 0 0 8 94 184 3 0 0 5 175 121 87 130 76 102 64 50 26 8 51 63 34 30 2 0 0 0 0 0 0 0
712 783 1133 8 0 0 0 0 0 99 64 45 0 2 13 32 41 117 267 87 13 0 0 7 359 315 187 51 33 0 39 0 0 36 8 2 13 0 0 0 0 0 0 0 0
0 58 874 798 34 0 0 86 205 23 0 0 0 0 0 21 50 330 100 2 86 204 231 298 402 5 0 175 4 0 45 22 44 16 3 0 0 0 0 0 0 0 0 0 0
CIN
0 0 0 0 0 0 0 0 0 0 0 0 0 0 0 0 0 0 0 0 0 0 0 0 0 0 0 -59 -6 -26 -15 -3 -4 -8 -3 0 0 0 0 0 0 0 0 -53 -87
0 0 0 0 0 0 0 0 0 0 0 0 0 0 0 0 0 0 0 0 0 0 0 0 0 0 0 -9 -7 -62 -99 -13 -54 -5 -12 0 -7 -26 -25 -5 -1 -32 -62 -89 -82
0 0 0 0 0 0 0 0 0 0 0 0 0 0 0 0 0 0 0 0 0 0 0 0 0 0 -17 -8 -19 -45 -50 -19 -39 -23 -4 -6 -5 -4 -3 -15 -25 -5 -67 -94 -83
0 0 0 0 0 0 0 0 0 0 0 0 0 0 0 0 0 0 0 0 0 0 0 0 0 0 -6 -52 -9 -7 -33 -29 -15 -42 -33 -29 -18 -38 -2 -9 -12 -9 -50 -87 -90
0 0 0 0 0 0 0 0 0 0 0 0 0 0 0 0 0 0 0 0 0 0 0 0 0 -6 -4 -61 -24 -73 -20 -14 -19 0 -59 -28 0 -2 -8 -12 -20 -13 -27 -87 -86
0 0 0 0 0 0 0 0 0 0 0 0 0 0 0 0 0 0 0 0 0 0 0 0 0 -1 -12 -37 -46 -85 -79 -18 -6 -3 -33 0 -16 -3 -27 -7 -20 -19 -24 -18 -58
0 0 0 0 0 0 0 0 0 0 0 0 0 0 0 0 0 0 0 0 0 0 0 0 0 0 -11 -4 -12 -36 -18 -3 -121 -4 -5 -13 -19 -62 -105 -131 -4 -18 -21 -2 -2
0 0 0 0 0 0 0 0 0 0 0 0 0 0 0 0 0 0 0 0 0 0 0 0 0 0 0 -20 0 -2 -34 -23 -167 0 -100 -28 -13 -134 0 -198 -9 -12 -2 -4 -2
0 0 0 0 0 0 0 0 0 0 0 0 0 0 0 0 0 0 0 0 0 0 0 0 0 0 -42 -16 -15 -39 -18 -9 -37 -161 -30 -20 -28 -38 -227 -53 -15 -24 -2 -4 -4
0 0 0 0 0 0 0 0 0 0 0 0 0 0 0 0 0 0 0 0 0 0 0 0 0 -3 -17 -7 -9 0 -16 -11 -19 -36 -16 -16 -9 -4 -2 -17 -12 -19 -16 -2 -5
0 0 0 0 0 0 0 0 0 0 0 0 0 0 0 0 0 0 0 0 0 0 0 0 0 -26 0 -67 0 -54 0 0 -3 -27 -22 -27 -4 0 -22 -22 -15 -47 -169 -10 -3
0 0 0 0 0 0 0 0 0 0 0 0 0 0 0 0 0 0 0 0 0 -35 -8 -20 -25 -16 0 0 -2 -4 -1 -1 -7 0 0 0 -17 -42 -173 -190 -291 0 0 -12 -3
0 0 0 0 0 0 0 0 0 0 0 0 0 0 0 0 0 0 0 0 0 -14 -23 -8 -21 -28 -5 0 -14 -13 -17 -5 -34 0 -19 -3 -2 -83 -119 0 0 0 -52 -44 -4
0 0 0 0 0 0 0 0 0 0 0 0 0 0 0 0 0 0 0 0 0 -2 -19 -43 -17 -23 -5 0 0 -9 -9 -1 -35 -4 -4 -35 -26 -110 -216 -184 -229 0 0 -64 -35
0 0 0 0 0 0 0 0 0 0 0 0 0 0 0 0 0 0 0 -9 0 0 0 -14 -30 -9 -20 -2 0 0 -23 -38 -3 -16 -31 -15 -43 -26 -136 -80 -47 -89 -90 -124 -25
0 0 0 0 0 0 0 0 0 0 -9 -4 0 0 0 0 0 0 0 0 0 0 -6 -10 -2 -12 -10 -11 -12 0 -1 -3 -37 -27 -43 -91 -6 -10 -17 0 -4 0 -7 -18 -20
0 0 0 0 0 0 0 0 0 0 0 -4 -4 -8 0 0 0 0 0 -1 0 -3 0 -11 0 -10 -10 -4 -19 -7 -5 -4 -28 -17 0 -61 -42 -33 0 0 0 0 0 -6 -7
0 0 0 0 0 0 0 0 0 -3 -5 -8 -12 -5 -4 -34 -7 -2 0 0 0 -4 -13 -1 -8 -5 -111 -6 -7 -15 -30 -29 -5 -18 0 -13 -57 -108 -38 -9 0 -1 -13 -76 -42
0 0 0 0 0 0 0 0 0 -4 0 -3 -3 -4 -22 0 -34 -55 -52 0 -52 -36 0 -13 0 -30 0 0 0 -11 -11 -66 -1 -20 -31 -5 -91 -96 0 -4 -37 -24 -13 -49 -19
0 0 0 0 0 0 0 0 0 0 0 0 0 -2 -9 -28 0 -23 -25 0 -88 -8 0 -24 -25 -17 -23 0 -5 -20 -30 -31 -36 -2 -24 -13 -16 -5 -22 -14 -24 -46 -21 -6 -23
0 -52 0 0 0 0 0 0 -3 0 0 0 0 0 -2 -1 -7 -5 -3 -15 -20 -9 -15 -30 -24 -20 -39 -62 -60 -123 -36 -82 -37 0 -34 -9 -20 -25 -9 -11 -62 0 -45 -39 -39
-35 -6 0 0 0 0 0 0 0 0 0 0 0 0 0 0 0 -3 -2 -3 -29 -36 -32 -78 -60 -16 -5 -97 -55 0 0 0 -2 -7 -5 -7 -12 -43 0 0 0 0 0 0 0
-301 -59 0 0 0 0 0 0 0 0 0 0 0 0 0 0 -1 -2 -12 -8 -35 -21 -14 -20 -55 0 -16 -10 -5 0 0 0 -6 -5 -5 -8 -13 -21 0 0 0 0 0 0 0
-263 -23 0 0 0 0 0 0 0 0 0 0 0 0 0 0 -2 -2 -8 -88 0 -106 0 -36 -5 -5 0 -7 -54 -48 -45 -23 -9 -2 -1 -61 -20 0 0 0 0 0 0 0 0
-106 -40 -36 0 0 0 0 0 0 0 -2 -1 0 0 0 0 -2 -3 -45 -111 0 0 -209 -26 -20 -9 -4 -3 -8 -5 -4 -3 -5 -3 -2 -15 -47 -14 0 0 0 0 0 0 0
-7 -12 -8 -96 0 0 0 0 0 -11 -26 -23 0 -4 -6 -3 -16 -5 -26 -85 -108 0 0 -12 -15 -2 -34 -10 -44 0 -16 0 0 -29 -8 -5 -25 0 0 0 0 0 0 0 0
-33 -237 -36 -11 -4 0 0 -37 -16 -41 0 0 0 0 0 -23 -5 -5 -76 -94 -55 -69 -48 -17 -1 -50 0 -16 -15 0 -37 -3 -2 -3 -36 0 0 0 0 0 0 0 0 0 0
Wind_Speed
18 21 22 21 20 20 19 19 19 19 19 19 19 19 18 19 21 13 18 16 13 19 21 21 21 21 21 18 18 16 19 13 15 13 14 14 13 16 15 14 16 16 17 14 14
20 21 21 22 21 20 20 19 19 19 19 19 18 18 18 17 6 16 17 8 7 13 22 22 20 19 19 19 16 14 21 6 13 15 14 14 11 12 13 13 12 14 15 14 13
21 20 20 18 17 18 20 20 19 19 18 19 18 17 17 17 10 12 14 12 6 11 24 24 21 20 21 21 22 13 12 5 21 16 15 14 11 10 12 9 10 8 11 12 11
20 19 17 15 15 15 17 16 20 20 19 19 18 16 15 7 13 10 13 11 9 16 24 22 21 20 22 21 13 9 10 7 10 17 13 10 10 7 9 12 14 13 10 9 8
18 17 19 15 14 14 11 15 17 19 19 19 18 17 11 6 15 8 9 8 6 6 24 22 21 20 22 22 21 16 20 15 14 13 12 12 10 11 10 10 12 11 9 7 6
17 17 16 17 14 12 12 13 14 17 19 19 18 16 6 8 9 10 14 8 9 15 23 22 22 21 15 11 9 9 8 5 12 15 12 12 10 6 17 12 9 10 6 4 4
19 18 15 13 11 13 13 13 13 14 17 19 17 14 3 17 11 12 15 14 21 22 23 23 24 23 23 20 13 9 11 5 20 28 11 12 13 20 22 26 8 11 7 4 3
20 19 16 13 12 12 13 14 13 14 15 18 22 22 2 15 14 14 15 24 26 24 25 23 22 24 23 21 23 15 25 26 23 20 16 12 17 16 16 7 8 11 6 5 4
21 19 18 16 14 13 13 14 14 15 15 16 18 19 20 12 11 17 17 21 26 25 24 23 23 23 24 27 25 23 18 15 5 8 7 7 18 8 5 1 8 11 9 8 6
23 20 20 19 18 15 14 13 11 14 15 16 21 16 21 15 14 13 13 25 12 26 25 25 25 27 22 24 24 26 29 17 15 11 15 17 19 21 21 10 13 14 17 7 5
26 22 21 20 19 17 15 15 14 13 15 18 16 20 14 15 13 10 13 16 18 21 7 11 10 29 15 24 23 30 30 30 30 27 19 33 28 29 32 34 18 22 29 6 6
27 25 23 22 19 18 13 14 13 16 10 19 23 18 20 9 9 11 13 11 13 18 10 15 24 31 20 9 16 34 34 33 30 30 27 24 25 28 32 32 30 42 16 3 3
27 26 24 22 19 11 16 16 14 17 11 14 20 18 21 17 13 13 12 14 17 15 20 22 23 30 34 31 34 33 35 30 34 36 35 32 22 30 34 35 38 53 11 9 8
28 27 25 22 13 13 17 15 14 12 8 14 14 16 19 19 18 21 11 12 21 24 22 21 7 14 34 31 35 38 32 34 32 40 36 30 29 25 32 33 28 14 4 2 19
29 28 25 20 18 17 11 16 16 12 17 15 14 10 15 20 19 15 24 18 18 28 34 34 7 5 31 11 17 40 35 36 36 31 32 33 31 32 30 35 18 9 8 8 16
29 28 25 12 10 19 18 17 14 12 10 14 11 10 11 15 16 17 19 22 21 24 33 37 26 20 11 8 9 28 19 33 33 30 34 32 24 22 22 20 23 27 27 23 28
30 27 23 21 6 5 19 18 11 10 14 8 10 11 9 12 12 9 16 20 15 13 17 23 31 27 33 28 36 35 24 28 38 32 38 8 19 22 29 22 26 24 26 28 29
30 26 13 10 20 18 21 12 7 12 10 16 11 10 5 21 22 5 9 17 24 14 27 27 27 33 32 39 32 33 17 18 25 26 19 29 19 22 16 23 25 26 25 29 30
28 17 15 9 13 18 5 5 8 4 21 22 17 9 11 11 18 24 11 24 21 16 10 35 31 35 5 13 25 32 19 27 13 22 24 18 18 25 17 17 26 29 26 27 27
22 21 12 9 7 9 5 15 25 19 21 17 15 16 10 10 9 9 6 3 15 13 4 9 22 30 23 29 23 20 20 23 18 30 27 15 21 17 18 22 26 29 29 28 23
18 16 10 8 8 10 3 8 6 15 19 16 21 23 25 19 6 20 18 12 7 17 22 24 28 36 19 22 23 27 26 26 24 16 14 25 22 22 20 23 26 30 27 28 25
20 17 10 6 8 8 3 7 20 21 26 13 4 7 11 17 21 12 18 25 16 19 26 20 16 24 25 10 18 24 14 4 6 23 21 22 17 20 24 25 24 26 24 25 24
19 18 11 4 11 8 3 21 21 18 21 17 17 7 6 4 7 7 18 25 25 28 24 18 20 21 14 12 25 17 17 8 12 19 20 23 16 17 21 21 24 24 23 21 23
20 15 13 8 25 28 25 12 16 10 15 16 12 7 6 7 7 8 7 23 31 29 30 26 23 18 4 3 13 13 9 7 5 18 19 21 14 16 14 20 23 23 21 21 21
17 20 19 16 9 26 19 23 23 23 21 15 16 14 8 9 10 8 21 20 21 13 33 28 31 25 27 32 20 25 11 10 16 17 16 16 12 11 16 20 22 21 22 21 20
22 23 19 24 20 17 17 20 15 16 23 26 32 17 18 15 11 13 30 21 15 5 13 21 28 25 28 19 20 6 7 12 14 17 15 20 16 18 19 20 21 21 21 21 21
24 25 23 25 13 15 17 13 18 25 25 25 30 32 15 11 38 35 29 42 19 12 2 10 9 18 16 9 15 15 17 12 14 14 14 16 17 19 22 22 19 18 18 20 20
Wind_Direction
308 315 321 315 310 310 309 310 309 307 304 302 293 289 288 272 224 125 150 173 164 149 195 196 181 209 217 218 204 204 272 338 292 3 36 49 28 36 20 48 26 23 15 68 90
313 314 315 316 317 317 318 321 326 327 323 321 313 299 281 289 17 159 152 66 340 109 199 184 180 196 218 227 259 340 253 206 192 34 54 56 42 46 47 42 39 41 36 64 88
315 309 306 294 284 285 308 318 320 325 329 320 309 299 277 264 338 149 134 122 80 116 205 227 231 223 225 245 262 46 99 83 261 353 2 19 42 60 36 45 41 93 63 76 87
310 307 293 276 265 250 271 238 293 293 295 287 289 295 285 354 322 344 121 110 96 166 215 219 219 221 276 256 157 356 87 47 59 0 6 31 33 70 43 44 44 39 72 79 86
302 298 299 278 262 240 195 230 239 261 262 269 274 271 296 1 333 33 93 79 30 23 201 209 217 226 323 273 283 330 287 337 6 12 12 6 18 12 20 46 36 37 65 72 83
299 294 290 286 259 222 204 204 212 240 253 271 271 271 360 184 15 84 112 80 81 131 198 230 250 279 200 160 101 33 149 139 10 357 8 9 7 19 337 342 36 25 34 67 84
300 296 282 268 237 229 218 202 200 197 215 245 277 278 40 180 41 103 121 124 167 181 233 263 269 264 255 296 358 12 4 53 334 315 353 7 348 333 320 271 16 4 9 24 61
299 295 283 265 244 217 212 208 198 192 186 178 208 227 34 162 265 120 132 180 210 243 255 271 272 248 244 273 287 333 326 322 327 294 214 14 351 16 57 166 8 354 0 2 12
297 293 288 273 252 223 207 207 189 191 158 129 136 145 178 331 133 152 149 176 232 248 251 271 259 230 247 260 296 317 333 348 334 118 180 19 345 15 115 116 356 357 348 352 352
302 292 289 281 266 231 209 159 144 185 132 135 183 149 202 167 136 137 143 199 227 240 235 237 246 245 294 293 316 280 295 333 357 352 342 338 337 336 343 343 338 350 348 350 339
306 295 288 283 264 243 204 100 103 108 153 153 136 168 138 158 120 122 147 157 176 189 328 169 164 246 350 304 251 269 294 299 314 333 340 305 327 333 339 341 339 339 319 352 350
307 299 291 284 259 221 130 130 268 274 155 175 199 176 196 113 122 150 147 157 168 188 186 194 296 251 345 125 295 255 285 298 318 319 323 326 325 327 334 334 343 346 226 319 5
306 300 293 283 258 141 153 171 235 259 193 176 176 183 189 177 170 160 145 168 189 191 203 212 263 255 274 293 283 281 296 313 310 300 307 325 338 334 327 332 328 323 298 311 340
305 301 295 282 46 126 157 169 186 205 128 130 147 181 183 180 189 197 164 167 196 209 211 283 303 221 276 297 289 290 287 300 313 299 312 331 326 342 341 342 353 24 332 352 8
303 299 291 298 237 159 308 145 232 137 69 88 118 84 162 181 194 180 203 183 198 224 251 255 238 241 247 291 314 282 273 303 312 321 326 320 323 330 339 348 29 42 29 2 24
300 297 288 9 108 186 216 188 143 101 90 93 89 100 118 167 185 194 191 196 211 225 241 251 252 227 240 283 309 300 304 306 314 323 315 325 324 335 351 1 12 9 14 17 8
296 288 288 272 13 336 215 172 91 100 49 125 85 126 130 163 157 167 196 199 192 206 217 227 248 245 279 280 273 264 299 311 294 312 312 304 327 337 338 357 357 7 10 13 11
292 279 322 139 256 270 214 119 96 169 35 21 43 193 84 312 297 103 163 199 213 209 235 241 242 262 301 261 269 243 318 318 316 323 336 309 325 333 358 354 1 9 10 6 1
288 319 324 360 140 269 345 100 127 66 325 321 236 172 39 51 323 277 358 306 243 308 245 266 249 290 10 220 288 281 314 315 335 330 334 330 358 346 354 7 0 359 7 12 16
290 260 332 3 19 331 30 178 248 337 322 231 215 222 224 71 73 38 16 17 203 343 284 318 243 290 311 315 281 312 327 324 345 310 322 306 358 3 12 3 2 356 7 11 33
293 295 336 21 342 317 19 134 181 349 333 333 240 251 276 281 292 341 354 39 10 336 326 322 288 268 313 312 303 304 307 305 300 353 356 327 346 348 355 354 359 358 6 12 30
277 294 342 32 324 328 6 16 316 314 296 358 25 201 216 235 244 347 345 336 353 336 323 338 339 297 296 348 331 318 335 334 319 334 330 334 340 338 342 350 4 5 12 15 11
280 291 338 14 301 323 19 301 318 332 319 336 337 354 344 275 338 338 342 341 332 314 315 345 335 284 332 320 323 4 289 161 198 337 335 331 344 349 347 354 7 8 17 21 15
279 299 327 315 243 269 283 327 333 2 343 338 343 331 323 315 310 300 291 325 311 308 297 302 311 320 335 241 12 8 75 73 42 343 341 344 4 0 14 4 6 12 16 18 25
280 294 284 298 307 261 301 296 310 316 337 355 349 347 325 309 315 282 337 336 335 318 279 289 276 305 296 286 316 323 16 27 358 357 353 9 25 36 6 5 6 13 10 12 17
292 294 271 263 286 298 303 306 331 339 332 327 314 342 338 332 325 258 326 327 338 50 346 308 281 304 297 325 312 321 39 9 6 346 1 355 9 2 6 3 3 9 14 19 20
293 294 277 263 314 308 305 325 322 318 329 333 326 328 335 305 306 314 315 290 278 339 311 331 333 322 325 242 329 335 328 12 2 9 3 358 359 358 350 355 7 13 20 20 16